GW1129 Weather Reports


time (UTC)temp
C
wind
direction
speed
KPH
gust
KPH
rain 1hr
cm
rain 24hr
cm
rain mn
cm
humidity
%
barometer
mb
20260505151602 22 198 4.8 16.1 0.00 0.00 0.00 51 1012.4
20260505140108 21 98 4.8 19.3 0.00 0.00 0.00 52 1012.1
20260505124557 18 183 6.4 16.1 0.00 0.00 0.00 57 1012.3
20260505123108 17 81 6.4 20.9 0.00 0.00 0.00 61 1012.3
20260505121600 16 271 6.4 20.9 0.00 0.00 0.00 63 1012.2
20260505120115 16 270 3.2 16.1 0.00 0.00 0.00 65 1012.2
20260505114558 15 245 1.6 11.3 0.00 0.00 0.00 65 1012.2
20260505113058 15 0 3.2 11.3 0.00 0.00 0.00 66 1012.0
20260505111557 15 178 1.6 11.3 0.00 0.00 0.00 68 1012.1
20260505110113 14 204 0.0 8.0 0.00 0.00 0.00 69 1011.9
20260505101603 13 0 0.0 3.2 0.00 0.00 0.00 73 1011.2
20260505100057 13 0 0.0 0.0 0.00 0.00 0.00 74 1011.3
20260505094649 13 0 0.0 6.4 0.00 0.00 0.00 74 1011.1
20260505093055 13 220 0.0 6.4 0.00 0.00 0.00 74 1011.0
20260505091559 13 95 0.0 4.8 0.00 0.00 0.00 75 1011.0
20260505084605 14 173 0.0 4.8 0.00 0.00 0.00 74 1011.0
20260505083109 14 0 1.6 11.3 0.00 0.00 0.00 73 1010.9
20260505081601 15 127 1.6 9.7 0.00 0.00 0.00 72 1011.1
20260505080105 15 179 0.0 9.7 0.00 0.00 0.00 71 1011.1
20260505074605 15 110 3.2 9.7 0.00 0.00 0.00 71 1011.0
20260505073103 15 172 1.6 9.7 0.00 0.00 0.00 71 1010.8
20260505071557 15 0 1.6 8.0 0.00 0.00 0.00 72 1010.7
20260505070107 15 192 1.6 9.7 0.00 0.00 0.00 74 1010.9
20260505064657 15 91 4.8 11.3 0.00 0.00 0.00 74 1010.9
20260505063104 15 0 0.0 6.4 0.00 0.00 0.00 75 1010.9
20260505061601 15 175 1.6 11.3 0.00 0.00 0.00 75 1011.0
20260505060101 15 86 0.0 6.4 0.00 0.00 0.00 74 1010.8
20260505054556 15 200 1.6 8.0 0.00 0.00 0.00 74 1011.0
20260505053056 15 127 3.2 8.0 0.00 0.00 0.00 74 1011.1
20260505051557 15 0 1.6 11.3 0.00 0.00 0.00 74 1011.1
20260505050104 15 0 3.2 9.7 0.00 0.00 0.00 74 1011.1
20260505041603 15 238 1.6 8.0 0.00 0.00 0.00 72 1010.9
20260505040106 15 224 3.2 9.7 0.00 0.00 0.00 70 1011.0
20260505034610 15 0 0.0 3.2 0.00 0.00 0.00 66 1010.8
20260505033057 16 211 1.6 12.9 0.00 0.00 0.00 63 1010.8
20260505031558 17 167 4.8 16.1 0.00 0.00 0.00 61 1010.9
20260505030114 17 169 4.8 17.7 0.00 0.00 0.00 59 1010.9
20260505024609 17 181 6.4 14.5 0.00 0.00 0.00 57 1010.8
20260505023058 17 129 3.2 25.7 0.00 0.00 0.00 56 1010.9
20260505021557 17 141 3.2 11.3 0.00 0.00 0.00 56 1011.0
20260505020107 17 218 3.2 14.5 0.00 0.00 0.00 55 1010.8
20260505014558 17 198 4.8 17.7 0.00 0.00 0.00 55 1010.7
20260505013057 17 106 3.2 19.3 0.00 0.00 0.00 55 1010.5
20260505011559 17 94 3.2 12.9 0.00 0.00 0.00 55 1010.4
20260505010109 17 196 3.2 17.7 0.00 0.00 0.00 53 1010.3
20260505004624 17 160 3.2 11.3 0.00 0.00 0.00 53 1010.4
20260505003100 17 0 4.8 14.5 0.00 0.00 0.00 52 1010.2
20260505001557 18 74 6.4 12.9 0.00 0.00 0.00 50 1010.2
20260505000112 18 191 4.8 19.3 0.00 0.00 0.00 48 1010.3
20260504234556 18 207 6.4 25.7 0.00 0.00 0.00 47 1010.3
20260504233103 19 179 6.4 30.6 0.00 0.00 0.00 46 1010.5
20260504231622 20 162 6.4 22.5 0.00 0.00 0.00 44 1010.4
20260504230058 20 157 6.4 19.3 0.00 0.00 0.00 42 1010.4
20260504224606 20 101 6.4 19.3 0.00 0.00 0.00 40 1010.3
20260504223057 20 92 4.8 20.9 0.00 0.00 0.00 40 1010.2
20260504221641 20 231 9.7 19.3 0.00 0.00 0.00 40 1010.3
20260504220059 21 163 6.4 16.1 0.00 0.00 0.00 39 1010.2
20260504214555 21 184 6.4 19.3 0.00 0.00 0.00 38 1010.4
20260504213102 21 264 9.7 22.5 0.00 0.00 0.00 38 1010.4
20260504211556 21 130 9.7 24.1 0.00 0.00 0.00 38 1010.5
20260504210056 21 139 6.4 19.3 0.00 0.00 0.00 38 1010.6
20260504204557 21 184 11.3 27.4 0.00 0.00 0.00 37 1010.8
20260504203056 21 234 8.0 20.9 0.00 0.00 0.00 37 1010.8
20260504201557 21 125 6.4 19.3 0.00 0.00 0.00 37 1010.9
20260504194606 20 98 8.0 24.1 0.00 0.00 0.00 37 1011.4
20260504193102 21 97 9.7 19.3 0.00 0.00 0.00 36 1011.7
20260504191623 20 255 9.7 22.5 0.00 0.00 0.00 38 1011.8
20260504184606 20 143 8.0 22.5 0.00 0.00 0.00 35 1012.1
20260504183055 20 165 4.8 20.9 0.00 0.00 0.00 38 1012.2
20260504181604 20 92 6.4 22.5 0.00 0.00 0.00 38 1012.2
20260504174559 20 217 4.8 14.5 0.00 0.00 0.00 36 1012.8
20260504173104 20 94 4.8 19.3 0.00 0.00 0.00 38 1012.9
20260504171605 20 211 4.8 19.3 0.00 0.00 0.00 40 1013.0